Weather History for KMGN - December, 2013

Change the Weather History Date:

Tuesday, December 24, 2013

  Actual Average (KPLN) Record (KPLN)
Temperature  
Mean Temperature 0 °F -  
Max Temperature 10 °F 26 °F 43 °F (1982)
Min Temperature -9 °F 12 °F -23 °F (1969)
Degree Days  
Heating Degree Days 64    
Moisture  
Dew Point -5 °F    
Average Humidity 79    
Maximum Humidity 86    
Minimum Humidity 65    
Precipitation  
Precipitation 0.00 in - - ()
Sea Level Pressure  
Sea Level Pressure 30.41 in    
Wind  
Wind Speed 0 mph (North)    
Max Wind Speed 0 mph    
Max Gust Speed -    
Visibility 10 miles    
Events      
Averages and records for this station are not official NWS values.
T = Trace of Precipitation, MM = Missing Value Source: NWS Daily Summary

Daily Weather History Graph

Daily Weather History Graph

Search for Another Location

Airport or City:

Trip Planner

Search our weather history database for the weather conditions in past years. The results will help you decide how hot, cold, wet, or windy it might be!

Date:

Astronomy

Dec. 24, 2013 Rise Set
Actual Time 8:17 AM EST 5:01 PM EST
Civil Twilight 7:43 AM EST 5:35 PM EST
Nautical Twilight 7:06 AM EST 6:12 PM EST
Astronomical Twilight 6:30 AM EST 6:48 PM EST
Moon No Moon Rise 11:52 AM EST (12/24)
Length of Visible Light 9h 51m
Length of Day
8h 43m
Waning Gibbous, 59% of the Moon is Illuminated
Dec 24
Waning Gibbous
Dec 25
Last Quarter
Jan 1
New
Jan 7
First Quarter
Jan 15
Full

Hourly Weather History & Observations

Time (EST) Temp. Dew Point Humidity Pressure Visibility Wind Dir Wind Speed Gust Speed Precip Events Conditions
12:15 AM 4.3 °F -0.0 °F 82% 30.32 in 10.0 mi Calm Calm - N/A   Scattered Clouds
12:35 AM 1.4 °F -1.8 °F 86% 30.32 in 10.0 mi Calm Calm - N/A   Clear
12:55 AM -0.0 °F -3.5 °F 85% 30.32 in 10.0 mi Calm Calm - N/A   Clear
1:15 AM -1.3 °F -4.7 °F 85% 30.32 in 10.0 mi Calm Calm - N/A   Clear
1:35 AM -2.7 °F -6.0 °F 86% 30.32 in 10.0 mi Calm Calm - N/A   Clear
1:55 AM -0.4 °F -3.8 °F 85% 30.32 in 10.0 mi Calm Calm - N/A   Clear
2:15 AM -0.9 °F -4.5 °F 85% 30.33 in 10.0 mi Calm Calm - N/A   Clear
2:35 AM -4.2 °F -8.0 °F 84% 30.33 in 10.0 mi Calm Calm - N/A   Clear
2:55 AM -3.8 °F -7.2 °F 85% 30.34 in 10.0 mi Calm Calm - N/A   Clear
3:15 AM -2.9 °F -6.7 °F 84% 30.35 in 10.0 mi Calm Calm - N/A   Clear
3:35 AM -4.2 °F -8.1 °F 83% 30.35 in 10.0 mi Calm Calm - N/A   Clear
3:55 AM -4.0 °F -7.8 °F 84% 30.35 in 10.0 mi Calm Calm - N/A   Clear
4:15 AM -5.1 °F -9.0 °F 83% 30.36 in 10.0 mi Calm Calm - N/A   Clear
4:35 AM -4.2 °F -7.8 °F 84% 30.36 in 10.0 mi Calm Calm - N/A   Clear
4:55 AM -4.0 °F -7.6 °F 85% 30.37 in 10.0 mi Calm Calm - N/A   Clear
5:15 AM -4.2 °F -8.0 °F 84% 30.37 in 10.0 mi Calm Calm - N/A   Clear
5:35 AM -6.7 °F -10.7 °F 83% 30.37 in 10.0 mi Calm Calm - N/A   Clear
5:55 AM -6.7 °F -10.3 °F 84% 30.38 in 10.0 mi Calm Calm - N/A   Clear
6:15 AM -6.5 °F -10.3 °F 84% 30.39 in 10.0 mi Calm Calm - N/A   Clear
6:35 AM -6.2 °F -10.3 °F 82% 30.40 in 10.0 mi Calm Calm - N/A   Clear
6:55 AM -6.7 °F -11.0 °F 81% 30.40 in 10.0 mi Calm Calm - N/A   Clear
7:14 AM -6.7 °F -10.7 °F 83% 30.40 in 10.0 mi Calm Calm - N/A   Clear
7:35 AM -9.0 °F -13.5 °F 81% 30.41 in 10.0 mi Calm Calm - N/A   Clear
7:55 AM -9.2 °F -13.7 °F 81% 30.41 in 10.0 mi Calm Calm - N/A   Clear
8:14 AM -6.9 °F -11.0 °F 82% 30.41 in 10.0 mi Calm Calm - N/A   Clear
8:35 AM -8.0 °F -12.3 °F 81% 30.42 in 10.0 mi Calm Calm - N/A   Clear
8:55 AM -7.4 °F -11.9 °F 81% 30.43 in 10.0 mi Calm Calm - N/A   Clear
9:15 AM -7.8 °F -12.3 °F 81% 30.43 in 10.0 mi Calm Calm - N/A   Clear
9:35 AM -4.9 °F -9.0 °F 82% 30.44 in 10.0 mi Calm Calm - N/A   Clear
9:55 AM -4.4 °F -8.5 °F 82% 30.44 in 10.0 mi Calm Calm - N/A   Clear
10:15 AM -2.6 °F -6.5 °F 83% 30.45 in 10.0 mi Calm Calm - N/A   Clear
10:35 AM -0.4 °F -4.7 °F 82% 30.45 in 10.0 mi Calm Calm - N/A   Clear
10:54 AM 0.3 °F -4.2 °F 81% 30.45 in 10.0 mi Calm Calm - N/A   Clear
11:15 AM 1.2 °F -3.8 °F 79% 30.44 in 10.0 mi Calm Calm - N/A   Clear
11:35 AM 2.8 °F -2.9 °F 77% 30.45 in 10.0 mi Calm Calm - N/A   Clear
11:54 AM 5.7 °F -1.1 °F 73% 30.44 in 10.0 mi Calm Calm - N/A   Clear
12:15 PM 5.9 °F -2.0 °F 70% 30.44 in 10.0 mi Calm Calm - N/A   Clear
12:35 PM 7.9 °F -0.6 °F 68% 30.44 in 10.0 mi Calm Calm - N/A   Clear
12:54 PM 8.4 °F -0.9 °F 66% 30.44 in 10.0 mi Calm Calm - N/A   Clear
1:15 PM 8.4 °F -0.6 °F 67% 30.44 in 10.0 mi Calm Calm - N/A   Clear
1:35 PM 8.4 °F -1.3 °F 65% 30.44 in 10.0 mi Calm Calm - N/A   Clear
1:55 PM 8.6 °F -0.6 °F 66% 30.44 in 10.0 mi Calm Calm - N/A   Clear
2:15 PM 9.5 °F -0.0 °F 65% 30.44 in 10.0 mi Calm Calm - N/A   Clear
2:35 PM 9.5 °F 0.7 °F 67% 30.44 in 10.0 mi Calm Calm - N/A   Clear
2:55 PM 10.2 °F 1.6 °F 68% 30.44 in 10.0 mi Calm Calm - N/A   Clear
3:15 PM 10.9 °F 2.1 °F 68% 30.44 in 10.0 mi Calm Calm - N/A   Clear
3:35 PM 10.9 °F 2.3 °F 68% 30.44 in 10.0 mi Calm Calm - N/A   Clear
3:55 PM 10.9 °F 3.0 °F 70% 30.44 in 10.0 mi Calm Calm - N/A   Clear
4:15 PM 10.6 °F 3.0 °F 72% 30.44 in 10.0 mi Calm Calm - N/A   Clear
4:35 PM 8.6 °F 0.5 °F 70% 30.44 in 10.0 mi Calm Calm - N/A   Clear
4:55 PM 8.4 °F 0.1 °F 69% 30.44 in 10.0 mi Calm Calm - N/A   Clear
5:15 PM 6.3 °F -0.4 °F 74% 30.44 in 10.0 mi Calm Calm - N/A   Clear
5:35 PM 5.2 °F -0.2 °F 78% 30.44 in 10.0 mi Calm Calm - N/A   Clear
5:55 PM 3.4 °F -1.3 °F 81% 30.45 in 10.0 mi Calm Calm - N/A   Clear
6:15 PM 1.2 °F -3.6 °F 80% 30.44 in 10.0 mi Calm Calm - N/A   Clear
6:34 PM 1.2 °F -2.9 °F 83% 30.45 in 10.0 mi Calm Calm - N/A   Clear
6:55 PM 0.5 °F -3.6 °F 83% 30.44 in 10.0 mi Calm Calm - N/A   Clear
7:15 PM -0.8 °F -4.7 °F 83% 30.44 in 10.0 mi Calm Calm - N/A   Clear
7:34 PM -0.4 °F -4.2 °F 84% 30.44 in 10.0 mi Calm Calm - N/A   Clear
7:51 PM 1.4 °F -3.1 °F 81% 30.44 in 10.0 mi Calm Calm - N/A   Clear